Location: Capvern
(43.1036°N, 0.3160°E)
Time: 09:27:59
(UTC+00:00)

Daily predictions for brighter satellites

Satellite Brightness Start Highest point End
(mag) Time Altitude Azimuth Time Altitude Azimuth Time Altitude Azimuth
Cosmos 1697 Rocket 2.8 17:34:50 10° S 17:40:22 58° ESE 17:45:55 10° NNE
Cosmos 1125 Rocket 4.0 17:35:47 10° SSE 17:40:37 38° ESE 17:45:27 10° NE
SME Rocket 4.3 17:39:26 10° N 17:43:17 50° WNW 17:48:15 10° SW
Cosmos 1908 4.3 17:41:20 10° SE 17:44:32 24° E 17:47:42 10° NE
Cosmos 1607 4.5 17:41:36 10° NNW 17:47:29 39° NE 17:53:15 10° ESE
Cosmos 1356 3.4 17:45:30 10° N 17:48:51 53° ENE 17:52:09 10° SSE
Meteor 1-24 Rocket 4.3 17:44:08 10° NNW 17:49:48 69° W 17:55:38 10° S
Cosmos 2227 Rocket 2.2 17:44:48 10° NNW 17:50:30 89° ENE 17:56:10 10° SSE
Cosmos 494 Rocket 4.2 17:48:28 10° N 17:53:34 50° ENE 17:58:35 10° SE
Landsat 5 3.8 17:50:18 10° NNE 17:54:31 51° E 17:58:51 10° S
MOS 1-B Rocket 4.4 17:49:56 10° NNE 17:56:40 49° E 18:02:30 10° S
CZ-2C R/B 2.9 17:51:26 10° NNE 17:56:54 50° E 18:02:16 10° S
Cosmos 1726 3.7 17:54:00 10° SSW 17:57:23 38° WNW 18:00:47 10° N
Timation 2 Rocket 4.2 17:50:27 10° NNW 17:57:23 75° ENE 18:04:06 10° SSE
SKYMED 2 3.6 17:53:12 10° NNE 17:57:31 59° E 18:01:47 10° S
Aureole 2 4.3 17:56:24 10° NNW 17:59:21 74° WSW 18:02:29 10° SSE
Cosmos 1470 3.8 17:55:29 10° SSW 17:59:21 51° W 18:03:14 10° N
Okean O Rocket 1.6 17:57:11 10° SSE 18:01:27 63° ENE 18:05:46 10° N
Cosmos 2084 Rocket 4.4 17:58:00 10° WSW 18:01:42 42° NW 18:05:27 10° NNE
Cosmos 1758 3.5 18:02:12 10° SSW 18:06:12 78° W 18:10:12 10° N
CZ-4 R/B 2.2 18:04:20 10° SE 18:07:46 29° ENE 18:11:17 10° N
GPS 2-04 Rocket1 4.5 18:05:26 10° WSW 18:08:22 21° SSW 18:11:13 10° SE
YAOGAN 1 3.3 18:04:42 10° SE 18:08:32 32° ENE 18:12:23 10° N
Cosmos 1703 3.9 18:05:17 10° N 18:08:54 33° ENE 18:12:27 10° SE
SL-16 R/B 3.8 18:06:38 10° ESE 18:08:50 13° E 18:08:50 13° E
Okean-O 3.9 18:07:42 13° ESE 18:10:21 21° ENE 18:13:37 10° NNE
Cosmos 1455 Rocket 3.6 18:08:46 10° SSE 18:12:46 35° E 18:16:48 10° NNE
Cosmos 2082 3.6 18:10:04 10° NNW 18:15:41 71° ENE 18:21:17 10° SSE
Spot 2 4.1 18:12:48 10° SSE 18:16:44 52° ENE 18:20:48 10° N
Cosmos 1953 2.4 18:12:55 10° S 18:16:51 53° E 18:20:49 10° NNE
Cosmos 2150 Rocket 4.1 18:14:40 10° SSW 18:20:08 85° WNW 18:25:34 10° NNE
H-2A R/B 2.7 18:17:05 10° NE 18:20:43 29° E 18:24:20 10° SSE
Cosmos 1727 Rocket 4.1 18:15:15 10° N 18:21:30 82° W 18:27:40 10° S
Okean 1-7 Rocket 4.5 18:18:30 10° NNE 18:22:16 27° ENE 18:24:34 18° ESE
Meteor 1-21 Rocket 4.3 18:18:40 10° N 18:24:30 68° ENE 18:30:22 10° SSE
Cosmos 1544 Rocket 4.4 18:22:13 10° SSE 18:26:02 29° E 18:29:53 10° NNE
H-2A R/B 2.9 18:25:22 10° S 18:30:34 56° W 18:35:56 10° NNW
ATLAS 3B R/B 3.3 18:27:04 10° SW 18:33:28 56° NW 18:40:12 10° NNE
Cosmos 1300 3.7 18:30:52 10° SSE 18:38:01 - NNE 18:33:11 26° ESE
Cosmos 405 Rocket 2.7 18:34:40 10° N 18:38:33 58° ENE 18:42:29 10° SSE
CZ-4B R/B 4.3 18:34:16 10° S 18:39:42 49° W 18:45:12 10° NNW
ATLAS 5 CENTAUR R/B 1.2 18:39:49 10° SSW 18:43:36 62° ESE 18:45:39 28° NE
COSMO-SKYMED 1 3.9 18:41:28 10° N 18:45:33 41° WNW 18:49:37 10° SW
NOSS 3-1 (C) 4.1 18:44:30 10° SSE 18:47:41 24° SE 18:47:41 24° SE
Cosmos 2369 4.3 18:45:52 10° SW 18:51:25 58° WNW 18:57:03 10° NNE
Feng Yun 1-1 Rocket 4.4 18:46:02 10° S 18:51:30 75° WSW 18:57:09 10° NNW
HJ-1C 3.1 18:51:07 38° SSE 18:52:13 81° ENE 18:55:29 10° N
SL-8 R/B 4.0 18:48:02 10° SW 18:52:38 48° SE 18:53:45 40° ESE
IRS-1C Rocket 4.0 18:50:31 10° SSE 18:55:44 72° ENE 19:01:00 10° N
Cosmos 1605 Rocket 4.2 18:50:35 10° SSE 18:56:27 47° E 19:02:27 10° NNE
H-2A R/B 3.1 18:52:13 10° S 18:56:35 60° WSW 19:00:51 10° NNW
SL-08 RB Rocket 4.1 18:55:04 10° S 18:59:31 64° WSW 19:04:05 10° NNW
Cosmos 1892 Rocket 4.1 18:55:16 10° NNW 18:59:41 60° W 19:04:03 10° S
Cosmos 1535 Rocket 4.4 18:54:58 10° S 19:01:09 71° E 19:07:26 10° NNE
Cosmos 1980 Rocket 2.8 19:00:01 10° SW 19:05:34 58° WNW 19:11:13 10° NNE
X-37B 1.2 19:05:30 10° W 19:08:08 55° WNW 19:08:08 55° WNW
Cosmos 489 Rocket 4.3 19:03:11 10° NNW 19:09:26 84° ENE 19:13:45 21° SSE
Cosmos 2263 Rocket 2.0 19:04:58 10° NNW 19:10:34 78° ENE 19:12:46 38° SE
CSL-04 Debris 4.0 19:08:41 29° SSE 19:11:26 71° ENE 19:16:50 10° N
Cosmos 1269 Rocket 3.9 19:07:13 10° NNW 19:12:33 80° ENE 19:14:31 40° SSE
CZ-2C R/B 3.4 19:14:54 10° SW 19:15:35 13° SSW 19:15:35 13° SSW
Cosmos 724 4.1 19:19:49 10° NNW 19:25:48 80° ENE 19:26:54 60° SE
Cosmos 1626 Rocket 3.9 19:24:42 10° N 19:28:11 57° NNW 19:28:11 57° NNW
Cosmos 371 Rocket 3.3 19:24:41 10° SSW 19:28:53 67° S 19:28:53 67° S
CSL-04 Rocket 3.6 19:30:10 41° S 19:32:11 85° WSW 19:37:47 10° NNW
Iridium 4 Rocket 4.4 19:28:38 10° NNW 19:32:45 40° W 19:37:10 10° SSW
MetOp-A 4.3 19:31:02 27° S 19:33:58 71° WSW 19:39:20 10° NNW
Gbstr 26 Del rocket 4.4 19:34:44 10° WNW 19:42:17 87° NNE 19:43:59 60° ESE
CZ-4 R/B 3.8 19:39:42 10° SW 19:42:46 22° W 19:45:54 10° NW
Cosmos 1844 Rocket 4.1 19:41:25 10° N 19:44:20 26° NNE 19:44:20 26° NNE
Okean-O 3.8 19:45:17 33° SW 19:46:33 41° W 19:50:45 10° NNW
SL-16 R/B 2.7 19:46:43 10° SSW 19:50:51 50° SSW 19:50:51 50° SSW
H-2A R/B 4.2 19:53:16 10° NNW 19:56:32 24° WNW 19:59:49 10° WSW
Cosmos 2322 Rocket 4.4 20:04:47 10° SSW 20:05:21 13° SSW 20:05:21 13° SSW
Cosmos 2344 4.2 20:04:29 10° NW 20:13:48 77° NE 20:15:56 63° ESE
Lacrosse 4 Rocket 4.2 20:11:48 10° NNW 20:12:21 13° NNW 20:12:21 13° NNW
ATLAS 5 CENTAUR R/B 4.3 20:25:50 10° W 20:27:13 15° WNW 20:27:13 15° WNW
